EA8NE-3 Weather Reports


time (UTC)temp
C
wind
direction
speed
KPH
gust
KPH
rain 1hr
cm
rain 24hr
cm
rain mn
cm
humidity
%
barometer
mb
20180625080117 22 45 0.0 0.0 0.00 0.00 0.00 53 1024.8
20180625080032 22 45 0.0 0.0 0.00 0.00 0.00 53 1024.8
20180625075036 21 45 0.0 0.0 0.00 0.00 0.00 57 1024.8
20180625074035 21 81 0.0 0.0 0.00 0.00 0.00 70 1023.8
20180625073034 21 79 0.0 0.0 0.00 0.00 0.00 80 1023.8
20180625072139 20 58 0.0 0.0 0.00 0.00 0.00 82 1023.8
20180625072033 20 58 0.0 0.0 0.00 0.00 0.00 82 1023.8
20180625071104 19 58 0.0 0.0 0.00 0.00 0.00 84 1023.8
20180625071032 19 58 0.0 0.0 0.00 0.00 0.00 84 1023.8
20180625070129 18 51 0.0 0.0 0.00 0.00 0.00 84 1023.8
20180625070035 18 51 0.0 0.0 0.00 0.00 0.00 84 1023.8
20180625065033 18 148 0.0 0.0 0.00 0.00 0.00 83 1023.8
20180625064036 18 136 0.0 0.0 0.00 0.00 0.00 83 1023.8
20180625063103 18 138 0.0 0.0 0.00 0.00 0.00 83 1023.8
20180625063032 18 138 0.0 0.0 0.00 0.00 0.00 83 1023.8
20180625062105 18 138 0.0 0.0 0.00 0.00 0.00 83 1023.8
20180625062034 18 138 0.0 0.0 0.00 0.00 0.00 83 1023.8
20180625061033 18 170 0.0 0.0 0.00 0.00 0.00 83 1023.8
20180625060035 18 156 0.0 0.0 0.00 0.00 0.00 83 1023.8
20180625055035 18 164 0.0 0.0 0.00 0.00 0.00 83 1023.8
20180625054036 18 213 0.0 0.0 0.00 0.00 0.00 83 1023.8
20180625053033 18 162 0.0 0.0 0.00 0.00 0.00 83 1023.8
20180625052031 18 136 0.0 0.0 0.00 0.00 0.00 83 1023.8
20180625051035 17 216 0.0 0.0 0.00 0.00 0.00 83 1023.8
20180625050144 17 256 0.0 0.0 0.00 0.00 0.00 83 1023.8
20180625050038 17 256 0.0 0.0 0.00 0.00 0.00 83 1023.8
20180625045100 18 209 0.0 0.0 0.00 0.00 0.00 83 1023.8
20180625044129 18 127 0.0 0.0 0.00 0.00 0.00 83 1022.8
20180625044036 18 127 0.0 0.0 0.00 0.00 0.00 83 1022.8
20180625043035 18 173 0.0 0.0 0.00 0.00 0.00 83 1022.8
20180625042035 18 170 0.0 0.0 0.00 0.00 0.00 83 1022.8
20180625041034 18 165 0.0 0.0 0.00 0.00 0.00 83 1022.8
20180625040159 18 134 0.0 0.0 0.00 0.00 0.00 83 1022.8
20180625040036 18 134 0.0 0.0 0.00 0.00 0.00 83 1022.8
20180625035037 18 161 0.0 0.0 0.00 0.00 0.00 83 1022.8
20180625034140 18 136 0.0 0.0 0.00 0.00 0.00 83 1022.8
20180625034035 18 136 0.0 0.0 0.00 0.00 0.00 83 1022.8
20180625033032 18 168 0.0 0.0 0.00 0.00 0.00 83 1022.8
20180625032136 18 135 0.0 0.0 0.00 0.00 0.00 82 1022.8
20180625032034 18 135 0.0 0.0 0.00 0.00 0.00 82 1022.8
20180625031033 18 98 0.0 0.0 0.00 0.00 0.00 82 1023.8
20180625030142 18 81 0.0 0.0 0.00 0.00 0.00 82 1023.8
20180625030037 18 81 0.0 0.0 0.00 0.00 0.00 82 1023.8
20180625024143 18 136 0.0 0.0 0.00 0.00 0.00 82 1023.8
20180625024035 18 136 0.0 0.0 0.00 0.00 0.00 82 1023.8
20180625023035 18 160 0.0 0.0 0.00 0.00 0.00 82 1023.8
20180625022142 18 141 0.0 0.0 0.00 0.00 0.00 82 1023.8
20180625022036 18 141 0.0 0.0 0.00 0.00 0.00 82 1023.8
20180625021035 18 125 0.0 0.0 0.00 0.00 0.00 82 1023.8
20180625020034 18 123 0.0 0.0 0.00 0.00 0.00 82 1023.8
20180625015032 18 149 0.0 0.0 0.00 0.00 0.00 82 1023.8
20180625014034 18 151 0.0 0.0 0.00 0.00 0.00 82 1023.8
20180625013036 18 139 0.0 0.0 0.00 0.00 0.00 81 1024.8
20180625012141 18 156 0.0 0.0 0.00 0.00 0.00 81 1024.8
20180625012035 18 156 0.0 0.0 0.00 0.00 0.00 81 1024.8
20180625011035 18 102 0.0 0.0 0.00 0.00 0.00 81 1024.8
20180625010139 18 125 0.0 0.0 0.00 0.00 0.00 81 1024.8
20180625010035 18 125 0.0 0.0 0.00 0.00 0.00 81 1024.8
20180625005035 18 67 0.0 0.0 0.00 0.00 0.00 81 1024.8
20180625003033 18 162 0.0 0.0 0.00 0.00 0.00 80 1024.8
20180625002033 18 91 0.0 0.0 0.00 0.00 0.00 80 1024.8
20180625001033 18 59 0.0 0.0 0.00 0.00 0.00 80 1024.8
20180625000033 18 75 0.0 0.0 0.00 0.00 0.00 79 1024.8
20180624235035 19 57 0.0 0.0 0.00 0.00 0.00 79 1024.8
20180624234030 19 126 0.0 0.0 0.00 0.00 0.00 78 1025.8
20180624233033 19 103 0.0 0.0 0.00 0.00 0.00 77 1025.8
20180624232118 19 112 0.0 0.0 0.00 0.00 0.00 76 1025.8
20180624232037 19 112 0.0 0.0 0.00 0.00 0.00 76 1025.8
20180624231037 19 107 0.0 0.0 0.00 0.00 0.00 76 1024.8
20180624230116 19 153 0.0 0.0 0.00 0.00 0.00 77 1025.8
20180624230035 19 153 0.0 0.0 0.00 0.00 0.00 77 1025.8
20180624225035 19 85 0.0 0.0 0.00 0.00 0.00 77 1025.8
20180624224032 19 43 0.0 0.0 0.00 0.00 0.00 77 1025.8
20180624223035 19 98 0.0 0.0 0.00 0.00 0.00 77 1024.8
20180624222035 18 137 0.0 0.0 0.00 0.00 0.00 77 1024.8
20180624221034 18 148 0.0 0.0 0.00 0.00 0.00 78 1024.8
20180624220126 18 148 0.0 0.0 0.00 0.00 0.00 78 1024.8
20180624220035 18 148 0.0 0.0 0.00 0.00 0.00 78 1024.8
20180624215035 18 149 0.0 0.0 0.00 0.00 0.00 78 1024.8
20180624214114 18 167 0.0 0.0 0.00 0.00 0.00 78 1024.8
20180624214034 18 167 0.0 0.0 0.00 0.00 0.00 78 1024.8
20180624213035 18 217 0.0 0.0 0.00 0.00 0.00 78 1024.8
20180624212034 18 167 0.0 0.0 0.00 0.00 0.00 78 1024.8
20180624211036 18 166 0.0 3.2 0.00 0.00 0.00 78 1023.8
20180624210033 18 157 0.0 0.0 0.00 0.00 0.00 78 1023.8
20180624205038 18 181 0.0 0.0 0.00 0.00 0.00 77 1023.8
20180624204037 18 176 0.0 0.0 0.00 0.00 0.00 76 1023.8
20180624203043 18 131 0.0 0.0 0.00 0.00 0.00 75 1023.8
20180624202040 18 153 0.0 0.0 0.00 0.00 0.00 74 1023.8
20180624201047 18 137 0.0 0.0 0.00 0.00 0.00 72 1023.8
20180624200037 18 142 0.0 0.0 0.00 0.00 0.00 72 1023.8
20180624195032 19 142 0.0 0.0 0.00 0.00 0.00 71 1023.8
20180624193038 19 134 0.0 0.0 0.00 0.00 0.00 69 1023.8
20180624192132 19 150 0.0 0.0 0.00 0.00 0.00 67 1023.8
20180624192030 19 150 0.0 0.0 0.00 0.00 0.00 67 1023.8
20180624191030 19 177 0.0 0.0 0.00 0.00 0.00 65 1023.8
20180624185031 20 146 0.0 0.0 0.00 0.00 0.00 58 1023.8
20180624184132 20 143 0.0 0.0 0.00 0.00 0.00 55 1023.8
20180624184033 20 143 0.0 0.0 0.00 0.00 0.00 55 1023.8
20180624183032 20 178 0.0 0.0 0.00 0.00 0.00 53 1022.8
20180624182031 20 145 0.0 0.0 0.00 0.00 0.00 51 1022.8
20180624181030 21 167 0.0 0.0 0.00 0.00 0.00 49 1022.8
20180624180031 21 158 0.0 0.0 0.00 0.00 0.00 47 1023.8
20180624175032 22 124 0.0 0.0 0.00 0.00 0.00 44 1023.8
20180624174143 21 204 0.0 0.0 0.00 0.00 0.00 45 1023.8
20180624174031 21 204 0.0 0.0 0.00 0.00 0.00 45 1023.8
20180624173037 22 177 0.0 0.0 0.00 0.00 0.00 42 1023.8
20180624172037 22 90 0.0 3.2 0.00 0.00 0.00 43 1023.8
20180624171037 22 135 0.0 0.0 0.00 0.00 0.00 43 1023.8
20180624170035 22 147 0.0 0.0 0.00 0.00 0.00 41 1023.8
20180624165037 22 145 0.0 3.2 0.00 0.00 0.00 41 1023.8
20180624164129 22 159 0.0 3.2 0.00 0.00 0.00 42 1023.8
20180624164035 22 159 0.0 3.2 0.00 0.00 0.00 42 1023.8
20180624163038 22 108 0.0 0.0 0.00 0.00 0.00 40 1023.8
20180624162034 22 172 3.2 3.2 0.00 0.00 0.00 39 1023.8
20180624161038 23 157 0.0 0.0 0.00 0.00 0.00 40 1023.8
20180624160037 22 65 0.0 0.0 0.00 0.00 0.00 41 1023.8
20180624155038 22 152 0.0 0.0 0.00 0.00 0.00 42 1023.8
20180624154128 22 76 0.0 0.0 0.00 0.00 0.00 42 1023.8
20180624154034 22 76 0.0 0.0 0.00 0.00 0.00 42 1023.8
20180624153038 22 125 6.4 8.0 0.00 0.00 0.00 39 1023.8
20180624152127 23 116 0.0 0.0 0.00 0.00 0.00 41 1023.8
20180624152036 23 116 0.0 0.0 0.00 0.00 0.00 41 1023.8
20180624151037 23 96 0.0 0.0 0.00 0.00 0.00 40 1023.8
20180624150127 23 65 0.0 0.0 0.00 0.00 0.00 40 1023.8
20180624150034 23 65 0.0 0.0 0.00 0.00 0.00 40 1023.8
20180624145040 23 96 0.0 0.0 0.00 0.00 0.00 41 1023.8
20180624144128 22 114 0.0 0.0 0.00 0.00 0.00 44 1023.8
20180624144033 22 114 0.0 0.0 0.00 0.00 0.00 44 1023.8
20180624143036 22 151 0.0 3.2 0.00 0.00 0.00 42 1023.8
20180624142126 23 143 0.0 0.0 0.00 0.00 0.00 42 1023.8
20180624142037 23 143 0.0 0.0 0.00 0.00 0.00 42 1023.8
20180624141034 22 153 0.0 0.0 0.00 0.00 0.00 44 1023.8
20180624135039 22 142 3.2 4.8 0.00 0.00 0.00 47 1023.8
20180624134127 21 126 0.0 0.0 0.00 0.00 0.00 57 1023.8
20180624134038 21 126 0.0 0.0 0.00 0.00 0.00 57 1023.8
20180624133038 21 76 0.0 0.0 0.00 0.00 0.00 65 1023.8
20180624132059 20 97 0.0 0.0 0.00 0.00 0.00 69 1023.8
20180624131035 20 74 0.0 0.0 0.00 0.00 0.00 72 1023.8
20180624130125 20 54 0.0 0.0 0.00 0.00 0.00 72 1024.8
20180624130034 20 54 0.0 0.0 0.00 0.00 0.00 72 1024.8
20180624125035 19 89 0.0 0.0 0.00 0.00 0.00 72 1024.8
20180624124035 19 53 0.0 0.0 0.00 0.00 0.00 72 1024.8
20180624123034 19 77 0.0 0.0 0.00 0.00 0.00 71 1024.8
20180624122123 19 124 0.0 3.2 0.00 0.00 0.00 71 1024.8
20180624122035 19 124 0.0 3.2 0.00 0.00 0.00 71 1024.8
20180624121037 20 134 0.0 6.4 0.00 0.00 0.00 69 1024.8
20180624120121 20 134 0.0 0.0 0.00 0.00 0.00 65 1024.8
20180624120032 20 134 0.0 0.0 0.00 0.00 0.00 65 1024.8
20180624115031 20 133 0.0 0.0 0.00 0.00 0.00 62 1024.8
20180624114113 20 145 0.0 0.0 0.00 0.00 0.00 56 1024.8
20180624114031 20 145 0.0 0.0 0.00 0.00 0.00 56 1024.8
20180624113034 20 84 0.0 0.0 0.00 0.00 0.00 51 1024.8
20180624112033 20 151 0.0 0.0 0.00 0.00 0.00 47 1024.8
20180624111032 21 105 3.2 4.8 0.00 0.00 0.00 45 1024.8
20180624110033 21 129 0.0 0.0 0.00 0.00 0.00 43 1024.8
20180624105036 21 161 0.0 0.0 0.00 0.00 0.00 42 1024.8
20180624104034 21 92 0.0 0.0 0.00 0.00 0.00 40 1024.8
20180624103121 21 106 0.0 0.0 0.00 0.00 0.00 37 1024.8
20180624103041 21 106 0.0 0.0 0.00 0.00 0.00 37 1024.8
20180624102039 22 99 0.0 0.0 0.00 0.00 0.00 34 1024.8
20180624101145 22 164 3.2 3.2 0.00 0.00 0.00 34 1024.8
20180624101033 22 164 3.2 3.2 0.00 0.00 0.00 34 1024.8
20180624100121 21 157 0.0 0.0 0.00 0.00 0.00 35 1024.8
20180624100035 21 157 0.0 0.0 0.00 0.00 0.00 35 1024.8
20180624095035 21 140 0.0 4.8 0.00 0.00 0.00 34 1024.8
20180624094122 22 139 0.0 3.2 0.00 0.00 0.00 32 1024.8
20180624094034 22 139 0.0 3.2 0.00 0.00 0.00 32 1024.8
20180624093120 22 125 3.2 3.2 0.00 0.00 0.00 32 1023.8
20180624093033 22 125 3.2 3.2 0.00 0.00 0.00 32 1023.8
20180624092034 21 172 0.0 0.0 0.00 0.00 0.00 34 1023.8
20180624091038 21 66 0.0 0.0 0.00 0.00 0.00 34 1024.8
20180624090036 21 350 0.0 0.0 0.00 0.00 0.00 39 1024.8
20180624085119 21 65 0.0 0.0 0.00 0.00 0.00 43 1024.8
20180624085038 21 65 0.0 0.0 0.00 0.00 0.00 43 1024.8
20180624084035 20 48 0.0 0.0 0.00 0.00 0.00 48 1024.8
20180624083120 19 83 0.0 0.0 0.00 0.00 0.00 54 1023.8
20180624083038 19 83 0.0 0.0 0.00 0.00 0.00 54 1023.8
20180624082033 18 294 0.0 0.0 0.00 0.00 0.00 55 1023.8
20180624081119 18 245 0.0 0.0 0.00 0.00 0.00 55 1023.8
20180624081036 18 245 0.0 0.0 0.00 0.00 0.00 55 1023.8